Flag for Belarus Weather past 2 weeks in Barysaw, Belarus

Now
57 °F

Sprinkles. Partly sunny.


Feels Like: 57 °F
Forecast: 53 / 67 °F
Wind: 1 mph from South

Location: Minsk

Current Time: Sep 4, 2015 at 8:29:21 PM

Latest Report: Sep 4, 2015 at 8:04 PM


Visibility: 3 mi

Pressure: 29.86 "Hg

Humidity: 94%

Dew point: 55 °F

Location of BarysawLocation

Historic Weather in Barysaw — Graph

°F

Barysaw temperature yesterday

Maximum temperature yesterday: 64 °F (at 12:00 AM)
Minimum temperature yesterday: 48 °F (at 11:30 PM)
Average temperature yesterday: 59 °F

Past Weeks' High & Low Weather Summary

 TemperatureHumidityPressure
High86 °F (Aug 25, 2:00 PM)100% (Aug 27, 4:30 AM)30.39 "Hg (Aug 27, 4:30 AM)
Low43 °F (Aug 21, 5:30 AM)20% (Aug 25, 4:00 PM)29.71 "Hg (Sep 1, 11:00 PM)
Average65 °F60%30.07 "Hg
* Reported Aug 20 7:00 PM — Sep 4 7:30 PM, Barysaw, Weather by CustomWeather, © 2015

Note: Actual official high and low records may vary slightly from our data, if they occured in-between our weather recording intervals... More about our weather records

Advertising

Barysaw weather history for previous 24 hours

 ConditionsComfort  
Time TempWeatherWind HumidityBarometerVisibility
7:30 PM
Fri, Sep 4
59 °FSprinkles. Partly sunny.1 mph88%29.86 "Hg5 mi
7:00 PM63 °FSprinkles. Partly sunny.No wind68%29.83 "HgN/A
6:30 PM63 °FPartly sunny.3 mph64%29.86 "HgN/A
6:00 PM63 °FPartly sunny.3 mph64%29.86 "HgN/A
5:30 PM64 °FLight rain. Partly sunny.6 mph60%29.86 "HgN/A
5:00 PM66 °FPartly sunny.6 mph52%29.89 "HgN/A
4:30 PM66 °FPartly sunny.6 mph52%29.89 "HgN/A
4:00 PM66 °FPartly sunny.6 mph52%29.89 "HgN/A
3:30 PM66 °FPartly sunny.6 mph52%29.92 "HgN/A
3:00 PM66 °FPartly sunny.3 mph56%29.92 "HgN/A
2:30 PM66 °FPartly sunny.No wind52%29.92 "HgN/A
2:00 PM66 °FPartly sunny.1 mph56%29.92 "HgN/A
1:30 PM64 °FPartly sunny.6 mph60%29.92 "HgN/A
1:00 PM66 °FPartly sunny.3 mph52%29.95 "HgN/A
12:30 PM66 °FPartly sunny.No wind52%29.95 "HgN/A
12:00 PM66 °FPartly sunny.3 mph52%29.95 "HgN/A
11:30 AM66 °FPartly sunny.No wind56%29.95 "HgN/A
11:00 AM64 °FBroken clouds.1 mph60%29.98 "HgN/A
10:30 AM64 °FPartly sunny.3 mph64%29.95 "HgN/A
10:00 AM63 °FSunny.No wind64%29.98 "Hg10 mi
9:30 AM61 °FSunny.No wind72%29.98 "Hg10 mi
9:00 AM57 °FSunny.No wind82%29.98 "Hg10 mi
8:30 AM54 °FSunny.No wind94%29.95 "Hg10 mi
8:00 AM50 °FSunny.No wind94%29.98 "Hg10 mi
7:30 AM45 °FSunny.No wind100%29.98 "Hg10 mi
7:00 AM45 °FClear.No wind93%29.98 "Hg10 mi
6:30 AM45 °FClear.No wind93%29.98 "Hg10 mi
6:00 AM45 °FLight fog.No wind93%29.98 "HgN/A
5:30 AM45 °FLight fog.No wind93%29.98 "HgN/A
5:00 AM43 °FClear.No wind100%29.98 "Hg10 mi
4:30 AM45 °FLight fog.No wind93%29.98 "HgN/A
4:00 AM45 °FClear.No wind93%29.98 "Hg5 mi
3:30 AM45 °FClear.No wind93%29.98 "Hg5 mi
3:00 AM45 °FLight fog.No wind93%29.98 "Hg5 mi
2:30 AM45 °FLight fog.1 mph93%29.98 "Hg4 mi
2:00 AM45 °FLight fog.No wind100%29.98 "Hg4 mi
1:30 AM45 °FLight fog.No wind100%29.98 "Hg4 mi
12:30 AM46 °FLight fog.No wind100%29.98 "Hg6 mi
12:00 AM48 °FClear.No wind94%29.98 "Hg6 mi
11:30 PM
Thu, Sep 3
48 °FFog.No wind100%29.98 "Hg1 mi
11:00 PM50 °FClear.No wind94%29.98 "Hg10 mi
10:30 PM50 °FClear.No wind100%29.98 "Hg10 mi
10:00 PM52 °FClear.No wind94%29.98 "Hg10 mi
9:30 PM54 °FClear.No wind94%29.98 "Hg10 mi
9:00 PM54 °FClear.No wind94%29.95 "Hg10 mi
8:30 PM54 °FSunny.1 mph94%29.95 "Hg10 mi
8:00 PM57 °FSunny.No wind88%29.95 "Hg10 mi
Weather by CustomWeather, © 2015

See weather overviewHow to use our weather pages